Location: Melizzano
(41.1500°N, 14.5000°E)
Time: 05:17:03
(UTC+00:00)

Cosmos 1709 Rocket - Pass Details

Date: 05 October 2021
Orbit: 947 x 1002 km, 82.9° (Epoch: 16 October)

Event Time Altitude Azimuth Distance (km) Brightness Sun altitude
Rises 17:21:55 0° 239° (WSW) 3,635 8.1 -9.2°
Reaches altitude 10° 17:25:48 10° 263° (W) 2,685 7.9 -10.0°
Maximum altitude 17:28:56 14° 294° (WNW) 2,386 7.2 -10.6°
Drops below altitude 10° 17:32:04 10° 326° (NW) 2,681 6.8 -11.2°
Sets 17:35:58 0° 350° (N) 3,628 7.2 -11.9°
